Date_Time,Julian_Date,Latitude,Longitude,Instrument_Depth,U,V,Speed,Direction
(yyyy-mm-dd hh:mn:ss UTC),(JD),(+ deg. North),(+ deg. East),(m),(cm/s),(cm/s),(cm/s),(deg True)
1982-04-27 18:30:00 UTC,2445087.270833,28.7317,-95.2428,0215,2.44,-5.48,6.0000,156.0000
1982-04-27 19:00:00 UTC,2445087.291667,28.7317,-95.2428,0215,2.25,-5.56,6.0000,158.0000
1982-04-27 19:30:00 UTC,2445087.312500,28.7317,-95.2428,0215,2.39,-6.58,7.0000,160.0000
1982-04-27 20:00:00 UTC,2445087.333333,28.7317,-95.2428,0215,2.51,-6.54,7.0000,159.0000
1982-04-27 20:30:00 UTC,2445087.354167,28.7317,-95.2428,0215,3.38,-7.25,8.0000,155.0000
1982-04-27 21:00:00 UTC,2445087.375000,28.7317,-95.2428,0215,3.39,-6.12,7.0000,151.0000
1982-04-27 21:30:00 UTC,2445087.395833,28.7317,-95.2428,0215,3.29,-6.18,7.0000,152.0000
1982-04-27 22:00:00 UTC,2445087.416667,28.7317,-95.2428,0215,2.74,-6.44,7.0000,157.0000
1982-04-27 22:30:00 UTC,2445087.437500,28.7317,-95.2428,0215,2.16,-6.66,7.0000,162.0000
1982-04-27 23:00:00 UTC,2445087.458333,28.7317,-95.2428,0215,1.57,-6.82,7.0000,167.0000
1982-04-27 23:30:00 UTC,2445087.479167,28.7317,-95.2428,0215,1.81,-6.76,7.0000,165.0000
1982-04-28 00:00:00 UTC,2445087.500000,28.7317,-95.2428,0215,2.16,-6.66,7.0000,162.0000
1982-04-28 00:30:00 UTC,2445087.520833,28.7317,-95.2428,0215,2.48,-8.65,9.0000,164.0000
1982-04-28 01:00:00 UTC,2445087.541667,28.7317,-95.2428,0215,1.91,-9.82,10.0000,169.0000
1982-04-28 01:30:00 UTC,2445087.562500,28.7317,-95.2428,0215,0.96,-10.96,11.0000,175.0000
1982-04-28 02:00:00 UTC,2445087.583333,28.7317,-95.2428,0215,0.00,-12.00,12.0000,180.0000
1982-04-28 02:30:00 UTC,2445087.604167,28.7317,-95.2428,0215,0.00,-12.00,12.0000,180.0000
1982-04-28 03:00:00 UTC,2445087.625000,28.7317,-95.2428,0215,0.63,-11.98,12.0000,177.0000
1982-04-28 03:30:00 UTC,2445087.645833,28.7317,-95.2428,0215,0.77,-10.97,11.0000,176.0000
1982-04-28 04:00:00 UTC,2445087.666667,28.7317,-95.2428,0215,0.77,-10.97,11.0000,176.0000
1982-04-28 04:30:00 UTC,2445087.687500,28.7317,-95.2428,0215,0.77,-10.97,11.0000,176.0000
1982-04-28 05:00:00 UTC,2445087.708333,28.7317,-95.2428,0215,0.96,-10.96,11.0000,175.0000
1982-04-28 05:30:00 UTC,2445087.729167,28.7317,-95.2428,0215,1.39,-9.90,10.0000,172.0000
1982-04-28 06:00:00 UTC,2445087.750000,28.7317,-95.2428,0215,1.74,-9.85,10.0000,170.0000
1982-04-28 06:30:00 UTC,2445087.770833,28.7317,-95.2428,0215,1.72,-8.83,9.0000,169.0000
1982-04-28 07:00:00 UTC,2445087.791667,28.7317,-95.2428,0215,2.02,-8.77,9.0000,167.0000
1982-04-28 07:30:00 UTC,2445087.812500,28.7317,-95.2428,0215,2.02,-8.77,9.0000,167.0000
1982-04-28 08:00:00 UTC,2445087.833333,28.7317,-95.2428,0215,1.80,-7.79,8.0000,167.0000
1982-04-28 08:30:00 UTC,2445087.854167,28.7317,-95.2428,0215,1.93,-6.73,7.0000,164.0000
1982-04-28 09:00:00 UTC,2445087.875000,28.7317,-95.2428,0215,2.28,-6.62,7.0000,161.0000
1982-04-28 09:30:00 UTC,2445087.895833,28.7317,-95.2428,0215,2.05,-6.69,7.0000,163.0000
1982-04-28 10:00:00 UTC,2445087.916667,28.7317,-95.2428,0215,1.66,-7.83,8.0000,168.0000
1982-04-28 10:30:00 UTC,2445087.937500,28.7317,-95.2428,0215,1.25,-8.91,9.0000,172.0000
1982-04-28 11:00:00 UTC,2445087.958333,28.7317,-95.2428,0215,0.28,-8.00,8.0000,178.0000
1982-04-28 11:30:00 UTC,2445087.979167,28.7317,-95.2428,0215,-0.28,-8.00,8.0000,182.0000
1982-04-28 12:00:00 UTC,2445088.000000,28.7317,-95.2428,0215,-0.70,-7.97,8.0000,185.0000
1982-04-28 12:30:00 UTC,2445088.020833,28.7317,-95.2428,0215,-1.25,-8.91,9.0000,188.0000
1982-04-28 13:00:00 UTC,2445088.041667,28.7317,-95.2428,0215,-1.41,-8.89,9.0000,189.0000
1982-04-28 13:30:00 UTC,2445088.062500,28.7317,-95.2428,0215,-2.63,-8.61,9.0000,197.0000
1982-04-28 14:00:00 UTC,2445088.083333,28.7317,-95.2428,0215,-4.64,-7.71,9.0000,211.0000
1982-04-28 14:30:00 UTC,2445088.104167,28.7317,-95.2428,0215,-5.54,-7.09,9.0000,218.0000
1982-04-28 15:00:00 UTC,2445088.125000,28.7317,-95.2428,0215,-5.45,-8.39,10.0000,213.0000
1982-04-28 15:30:00 UTC,2445088.145833,28.7317,-95.2428,0215,-3.95,-8.09,9.0000,206.0000
1982-04-28 16:00:00 UTC,2445088.166667,28.7317,-95.2428,0215,-2.60,-7.56,8.0000,199.0000
1982-04-28 16:30:00 UTC,2445088.187500,28.7317,-95.2428,0215,-1.10,-6.91,7.0000,189.0000
1982-04-28 17:00:00 UTC,2445088.208333,28.7317,-95.2428,0215,0.12,-7.00,7.0000,179.0000
1982-04-28 17:30:00 UTC,2445088.229167,28.7317,-95.2428,0215,1.22,-6.89,7.0000,170.0000
1982-04-28 18:00:00 UTC,2445088.250000,28.7317,-95.2428,0215,1.57,-6.82,7.0000,167.0000
1982-04-28 18:30:00 UTC,2445088.270833,28.7317,-95.2428,0215,0.70,-7.97,8.0000,175.0000
1982-04-28 19:00:00 UTC,2445088.291667,28.7317,-95.2428,0215,-1.46,-6.85,7.0000,192.0000
1982-04-28 19:30:00 UTC,2445088.312500,28.7317,-95.2428,0215,-3.91,-5.80,7.0000,214.0000
1982-04-28 20:00:00 UTC,2445088.333333,28.7317,-95.2428,0215,-4.11,-5.66,7.0000,216.0000
1982-04-28 20:30:00 UTC,2445088.354167,28.7317,-95.2428,0215,-3.18,-6.24,7.0000,207.0000
1982-04-28 21:00:00 UTC,2445088.375000,28.7317,-95.2428,0215,-3.29,-6.18,7.0000,208.0000
1982-04-28 21:30:00 UTC,2445088.395833,28.7317,-95.2428,0215,-4.59,-6.55,8.0000,215.0000
1982-04-28 22:00:00 UTC,2445088.416667,28.7317,-95.2428,0215,-3.81,-5.87,7.0000,213.0000
1982-04-28 22:30:00 UTC,2445088.437500,28.7317,-95.2428,0215,-1.25,-5.87,6.0000,192.0000
1982-04-28 23:00:00 UTC,2445088.458333,28.7317,-95.2428,0215,1.45,-5.82,6.0000,166.0000
1982-04-28 23:30:00 UTC,2445088.479167,28.7317,-95.2428,0215,1.81,-6.76,7.0000,165.0000
1982-04-29 00:00:00 UTC,2445088.500000,28.7317,-95.2428,0215,0.56,-7.98,8.0000,176.0000
1982-04-29 00:30:00 UTC,2445088.520833,28.7317,-95.2428,0215,-0.17,-10.00,10.0000,181.0000
1982-04-29 01:00:00 UTC,2445088.541667,28.7317,-95.2428,0215,0.00,-10.00,10.0000,180.0000
1982-04-29 01:30:00 UTC,2445088.562500,28.7317,-95.2428,0215,0.38,-10.99,11.0000,178.0000
1982-04-29 02:00:00 UTC,2445088.583333,28.7317,-95.2428,0215,0.58,-10.98,11.0000,177.0000
1982-04-29 02:30:00 UTC,2445088.604167,28.7317,-95.2428,0215,0.35,-9.99,10.0000,178.0000
1982-04-29 03:00:00 UTC,2445088.625000,28.7317,-95.2428,0215,0.17,-10.00,10.0000,179.0000
1982-04-29 03:30:00 UTC,2445088.645833,28.7317,-95.2428,0215,0.38,-10.99,11.0000,178.0000
1982-04-29 04:00:00 UTC,2445088.666667,28.7317,-95.2428,0215,0.96,-10.96,11.0000,175.0000
1982-04-29 04:30:00 UTC,2445088.687500,28.7317,-95.2428,0215,1.56,-9.88,10.0000,171.0000
1982-04-29 05:00:00 UTC,2445088.708333,28.7317,-95.2428,0215,1.74,-9.85,10.0000,170.0000
1982-04-29 05:30:00 UTC,2445088.729167,28.7317,-95.2428,0215,2.02,-8.77,9.0000,167.0000
1982-04-29 06:00:00 UTC,2445088.750000,28.7317,-95.2428,0215,2.74,-7.52,8.0000,160.0000
1982-04-29 06:30:00 UTC,2445088.770833,28.7317,-95.2428,0215,3.63,-7.13,8.0000,153.0000
1982-04-29 07:00:00 UTC,2445088.791667,28.7317,-95.2428,0215,3.88,-7.00,8.0000,151.0000
1982-04-29 07:30:00 UTC,2445088.812500,28.7317,-95.2428,0215,3.00,-7.42,8.0000,158.0000
1982-04-29 08:00:00 UTC,2445088.833333,28.7317,-95.2428,0215,2.05,-6.69,7.0000,163.0000
1982-04-29 08:30:00 UTC,2445088.854167,28.7317,-95.2428,0215,3.07,-6.29,7.0000,154.0000
1982-04-29 09:00:00 UTC,2445088.875000,28.7317,-95.2428,0215,4.11,-5.66,7.0000,144.0000
1982-04-29 09:30:00 UTC,2445088.895833,28.7317,-95.2428,0215,3.18,-5.09,6.0000,148.0000
1982-04-29 10:00:00 UTC,2445088.916667,28.7317,-95.2428,0215,2.34,-5.52,6.0000,157.0000
1982-04-29 10:30:00 UTC,2445088.937500,28.7317,-95.2428,0215,2.72,-5.35,6.0000,153.0000
1982-04-29 11:00:00 UTC,2445088.958333,28.7317,-95.2428,0215,3.09,-5.14,6.0000,149.0000
1982-04-29 11:30:00 UTC,2445088.979167,28.7317,-95.2428,0215,2.96,-6.34,7.0000,155.0000
1982-04-29 12:00:00 UTC,2445089.000000,28.7317,-95.2428,0215,3.13,-7.36,8.0000,157.0000
1982-04-29 12:30:00 UTC,2445089.020833,28.7317,-95.2428,0215,3.13,-7.36,8.0000,157.0000
1982-04-29 13:00:00 UTC,2445089.041667,28.7317,-95.2428,0215,2.51,-6.54,7.0000,159.0000
1982-04-29 13:30:00 UTC,2445089.062500,28.7317,-95.2428,0215,1.81,-6.76,7.0000,165.0000
1982-04-29 14:00:00 UTC,2445089.083333,28.7317,-95.2428,0215,0.97,-6.93,7.0000,172.0000
1982-04-29 14:30:00 UTC,2445089.104167,28.7317,-95.2428,0215,0.97,-6.93,7.0000,172.0000
1982-04-29 15:00:00 UTC,2445089.125000,28.7317,-95.2428,0215,1.69,-6.79,7.0000,166.0000
1982-04-29 15:30:00 UTC,2445089.145833,28.7317,-95.2428,0215,1.41,-8.89,9.0000,171.0000
1982-04-29 16:00:00 UTC,2445089.166667,28.7317,-95.2428,0215,0.70,-9.98,10.0000,176.0000
1982-04-29 16:30:00 UTC,2445089.187500,28.7317,-95.2428,0215,1.25,-8.91,9.0000,172.0000
1982-04-29 17:00:00 UTC,2445089.208333,28.7317,-95.2428,0215,1.66,-7.83,8.0000,168.0000
1982-04-29 17:30:00 UTC,2445089.229167,28.7317,-95.2428,0215,0.85,-6.95,7.0000,173.0000
1982-04-29 18:00:00 UTC,2445089.250000,28.7317,-95.2428,0215,0.49,-6.98,7.0000,176.0000
1982-04-29 18:30:00 UTC,2445089.270833,28.7317,-95.2428,0215,0.49,-6.98,7.0000,176.0000
1982-04-29 19:00:00 UTC,2445089.291667,28.7317,-95.2428,0215,0.94,-5.93,6.0000,171.0000
1982-04-29 19:30:00 UTC,2445089.312500,28.7317,-95.2428,0215,1.85,-5.71,6.0000,162.0000
1982-04-29 20:00:00 UTC,2445089.333333,28.7317,-95.2428,0215,1.79,-4.67,5.0000,159.0000
1982-04-29 20:30:00 UTC,2445089.354167,28.7317,-95.2428,0215,1.43,-3.73,4.0000,159.0000
1982-04-29 21:00:00 UTC,2445089.375000,28.7317,-95.2428,0215,1.24,-3.80,4.0000,162.0000
1982-04-29 21:30:00 UTC,2445089.395833,28.7317,-95.2428,0215,1.17,-3.83,4.0000,163.0000
1982-04-29 22:00:00 UTC,2445089.416667,28.7317,-95.2428,0215,1.10,-3.85,4.0000,164.0000
1982-04-29 22:30:00 UTC,2445089.437500,28.7317,-95.2428,0215,0.57,-2.94,3.0000,169.0000
1982-04-29 23:00:00 UTC,2445089.458333,28.7317,-95.2428,0215,0.42,-1.96,2.0000,168.0000
1982-04-29 23:30:00 UTC,2445089.479167,28.7317,-95.2428,0215,1.03,-2.82,3.0000,160.0000
1982-04-30 00:00:00 UTC,2445089.500000,28.7317,-95.2428,0215,0.67,-2.92,3.0000,167.0000
1982-04-30 00:30:00 UTC,2445089.520833,28.7317,-95.2428,0215,0.16,-3.00,3.0000,177.0000
1982-04-30 01:00:00 UTC,2445089.541667,28.7317,-95.2428,0215,1.46,-4.78,5.0000,163.0000
1982-04-30 01:30:00 UTC,2445089.562500,28.7317,-95.2428,0215,2.51,-6.54,7.0000,159.0000
1982-04-30 02:00:00 UTC,2445089.583333,28.7317,-95.2428,0215,1.69,-6.79,7.0000,166.0000
1982-04-30 02:30:00 UTC,2445089.604167,28.7317,-95.2428,0215,0.42,-7.99,8.0000,177.0000
1982-04-30 03:00:00 UTC,2445089.625000,28.7317,-95.2428,0215,-0.42,-7.99,8.0000,183.0000
1982-04-30 03:30:00 UTC,2445089.645833,28.7317,-95.2428,0215,-1.10,-8.93,9.0000,187.0000
1982-04-30 04:00:00 UTC,2445089.666667,28.7317,-95.2428,0215,-1.25,-8.91,9.0000,188.0000
1982-04-30 04:30:00 UTC,2445089.687500,28.7317,-95.2428,0215,-0.63,-8.98,9.0000,184.0000
1982-04-30 05:00:00 UTC,2445089.708333,28.7317,-95.2428,0215,0.31,-8.99,9.0000,178.0000
1982-04-30 05:30:00 UTC,2445089.729167,28.7317,-95.2428,0215,0.78,-8.97,9.0000,175.0000
1982-04-30 06:00:00 UTC,2445089.750000,28.7317,-95.2428,0215,1.41,-8.89,9.0000,171.0000
1982-04-30 06:30:00 UTC,2445089.770833,28.7317,-95.2428,0215,0.78,-8.97,9.0000,175.0000
1982-04-30 07:00:00 UTC,2445089.791667,28.7317,-95.2428,0215,-1.11,-7.92,8.0000,188.0000
1982-04-30 07:30:00 UTC,2445089.812500,28.7317,-95.2428,0215,-1.87,-8.80,9.0000,192.0000
1982-04-30 08:00:00 UTC,2445089.833333,28.7317,-95.2428,0215,-2.78,-8.56,9.0000,198.0000
1982-04-30 08:30:00 UTC,2445089.854167,28.7317,-95.2428,0215,-5.66,-6.99,9.0000,219.0000
1982-04-30 09:00:00 UTC,2445089.875000,28.7317,-95.2428,0215,-6.58,-6.14,9.0000,227.0000
1982-04-30 09:30:00 UTC,2445089.895833,28.7317,-95.2428,0215,-5.54,-7.09,9.0000,218.0000
1982-04-30 10:00:00 UTC,2445089.916667,28.7317,-95.2428,0215,-5.15,-8.57,10.0000,211.0000
1982-04-30 10:30:00 UTC,2445089.937500,28.7317,-95.2428,0215,-4.77,-7.63,9.0000,212.0000
1982-04-30 11:00:00 UTC,2445089.958333,28.7317,-95.2428,0215,-4.93,-6.30,8.0000,218.0000
1982-04-30 11:30:00 UTC,2445089.979167,28.7317,-95.2428,0215,-3.81,-5.87,7.0000,213.0000
1982-04-30 12:00:00 UTC,2445090.000000,28.7317,-95.2428,0215,-1.35,-5.85,6.0000,193.0000
1982-04-30 12:30:00 UTC,2445090.020833,28.7317,-95.2428,0215,0.95,-4.91,5.0000,169.0000
1982-04-30 13:00:00 UTC,2445090.041667,28.7317,-95.2428,0215,2.42,-4.37,5.0000,151.0000
1982-04-30 13:30:00 UTC,2445090.062500,28.7317,-95.2428,0215,3.50,-6.06,7.0000,150.0000
1982-04-30 14:00:00 UTC,2445090.083333,28.7317,-95.2428,0215,2.62,-6.49,7.0000,158.0000
1982-04-30 14:30:00 UTC,2445090.104167,28.7317,-95.2428,0215,1.46,-6.85,7.0000,168.0000
1982-04-30 15:00:00 UTC,2445090.125000,28.7317,-95.2428,0215,0.97,-6.93,7.0000,172.0000
1982-04-30 15:30:00 UTC,2445090.145833,28.7317,-95.2428,0215,0.12,-7.00,7.0000,179.0000
1982-04-30 16:00:00 UTC,2445090.166667,28.7317,-95.2428,0215,-0.97,-6.93,7.0000,188.0000
1982-04-30 16:30:00 UTC,2445090.187500,28.7317,-95.2428,0215,-0.85,-6.95,7.0000,187.0000
1982-04-30 17:00:00 UTC,2445090.208333,28.7317,-95.2428,0215,0.97,-6.93,7.0000,172.0000
1982-04-30 17:30:00 UTC,2445090.229167,28.7317,-95.2428,0215,2.47,-7.61,8.0000,162.0000
1982-04-30 18:00:00 UTC,2445090.250000,28.7317,-95.2428,0215,2.63,-8.61,9.0000,163.0000
1982-04-30 18:30:00 UTC,2445090.270833,28.7317,-95.2428,0215,1.41,-8.89,9.0000,171.0000
1982-04-30 19:00:00 UTC,2445090.291667,28.7317,-95.2428,0215,0.87,-9.96,10.0000,175.0000
1982-04-30 19:30:00 UTC,2445090.312500,28.7317,-95.2428,0215,1.39,-9.90,10.0000,172.0000
1982-04-30 20:00:00 UTC,2445090.333333,28.7317,-95.2428,0215,1.91,-9.82,10.0000,169.0000
1982-04-30 20:30:00 UTC,2445090.354167,28.7317,-95.2428,0215,1.41,-8.89,9.0000,171.0000
1982-04-30 21:00:00 UTC,2445090.375000,28.7317,-95.2428,0215,0.97,-7.94,8.0000,173.0000
1982-04-30 21:30:00 UTC,2445090.395833,28.7317,-95.2428,0215,1.81,-6.76,7.0000,165.0000
1982-04-30 22:00:00 UTC,2445090.416667,28.7317,-95.2428,0215,3.07,-6.29,7.0000,154.0000
1982-04-30 22:30:00 UTC,2445090.437500,28.7317,-95.2428,0215,3.50,-6.06,7.0000,150.0000
1982-04-30 23:00:00 UTC,2445090.458333,28.7317,-95.2428,0215,3.91,-5.80,7.0000,146.0000
1982-04-30 23:30:00 UTC,2445090.479167,28.7317,-95.2428,0215,3.39,-6.12,7.0000,151.0000
1982-05-01 00:00:00 UTC,2445090.500000,28.7317,-95.2428,0215,1.66,-7.83,8.0000,168.0000
1982-05-01 00:30:00 UTC,2445090.520833,28.7317,-95.2428,0215,1.25,-8.91,9.0000,172.0000
1982-05-01 01:00:00 UTC,2445090.541667,28.7317,-95.2428,0215,2.18,-8.73,9.0000,166.0000
1982-05-01 01:30:00 UTC,2445090.562500,28.7317,-95.2428,0215,2.76,-9.61,10.0000,164.0000
1982-05-01 02:00:00 UTC,2445090.583333,28.7317,-95.2428,0215,2.18,-8.73,9.0000,166.0000
1982-05-01 02:30:00 UTC,2445090.604167,28.7317,-95.2428,0215,1.56,-8.86,9.0000,170.0000
1982-05-01 03:00:00 UTC,2445090.625000,28.7317,-95.2428,0215,1.22,-9.93,10.0000,173.0000
1982-05-01 03:30:00 UTC,2445090.645833,28.7317,-95.2428,0215,1.22,-9.93,10.0000,173.0000
1982-05-01 04:00:00 UTC,2445090.666667,28.7317,-95.2428,0215,1.87,-8.80,9.0000,168.0000
1982-05-01 04:30:00 UTC,2445090.687500,28.7317,-95.2428,0215,2.02,-8.77,9.0000,167.0000
1982-05-01 05:00:00 UTC,2445090.708333,28.7317,-95.2428,0215,1.05,-9.95,10.0000,174.0000
1982-05-01 05:30:00 UTC,2445090.729167,28.7317,-95.2428,0215,0.58,-10.98,11.0000,177.0000
1982-05-01 06:00:00 UTC,2445090.750000,28.7317,-95.2428,0215,0.58,-10.98,11.0000,177.0000
1982-05-01 06:30:00 UTC,2445090.770833,28.7317,-95.2428,0215,0.87,-9.96,10.0000,175.0000
1982-05-01 07:00:00 UTC,2445090.791667,28.7317,-95.2428,0215,1.05,-9.95,10.0000,174.0000
1982-05-01 07:30:00 UTC,2445090.812500,28.7317,-95.2428,0215,1.22,-9.93,10.0000,173.0000
1982-05-01 08:00:00 UTC,2445090.833333,28.7317,-95.2428,0215,1.87,-8.80,9.0000,168.0000
1982-05-01 08:30:00 UTC,2445090.854167,28.7317,-95.2428,0215,2.34,-7.65,8.0000,163.0000
1982-05-01 09:00:00 UTC,2445090.875000,28.7317,-95.2428,0215,2.74,-7.52,8.0000,160.0000
1982-05-01 09:30:00 UTC,2445090.895833,28.7317,-95.2428,0215,3.29,-6.18,7.0000,152.0000
1982-05-01 10:00:00 UTC,2445090.916667,28.7317,-95.2428,0215,3.94,-4.53,6.0000,139.0000
1982-05-01 10:30:00 UTC,2445090.937500,28.7317,-95.2428,0215,4.68,-5.20,7.0000,138.0000
1982-05-01 11:00:00 UTC,2445090.958333,28.7317,-95.2428,0215,4.02,-5.73,7.0000,145.0000
1982-05-01 11:30:00 UTC,2445090.979167,28.7317,-95.2428,0215,2.63,-5.39,6.0000,154.0000
1982-05-01 12:00:00 UTC,2445091.000000,28.7317,-95.2428,0215,3.09,-5.14,6.0000,149.0000
1982-05-01 12:30:00 UTC,2445091.020833,28.7317,-95.2428,0215,4.95,-4.95,7.0000,135.0000
1982-05-01 13:00:00 UTC,2445091.041667,28.7317,-95.2428,0215,6.78,-4.24,8.0000,122.0000
1982-05-01 13:30:00 UTC,2445091.062500,28.7317,-95.2428,0215,7.36,-3.13,8.0000,113.0000
1982-05-01 14:00:00 UTC,2445091.083333,28.7317,-95.2428,0215,7.42,-3.00,8.0000,112.0000
1982-05-01 14:30:00 UTC,2445091.104167,28.7317,-95.2428,0215,7.87,-4.36,9.0000,119.0000
1982-05-01 15:00:00 UTC,2445091.125000,28.7317,-95.2428,0215,5.12,-4.77,7.0000,133.0000
1982-05-01 15:30:00 UTC,2445091.145833,28.7317,-95.2428,0215,1.63,-4.73,5.0000,161.0000
1982-05-01 16:00:00 UTC,2445091.166667,28.7317,-95.2428,0215,-0.52,-4.97,5.0000,186.0000
1982-05-01 16:30:00 UTC,2445091.187500,28.7317,-95.2428,0215,-0.17,-5.00,5.0000,182.0000
1982-05-01 17:00:00 UTC,2445091.208333,28.7317,-95.2428,0215,0.95,-4.91,5.0000,169.0000
1982-05-01 17:30:00 UTC,2445091.229167,28.7317,-95.2428,0215,0.70,-4.95,5.0000,172.0000
1982-05-01 18:00:00 UTC,2445091.250000,28.7317,-95.2428,0215,-0.35,-3.98,4.0000,185.0000
1982-05-01 18:30:00 UTC,2445091.270833,28.7317,-95.2428,0215,-0.57,-2.94,3.0000,191.0000
1982-05-01 19:00:00 UTC,2445091.291667,28.7317,-95.2428,0215,0.09,-5.00,5.0000,179.0000
1982-05-01 19:30:00 UTC,2445091.312500,28.7317,-95.2428,0215,0.14,-8.00,8.0000,179.0000
1982-05-01 20:00:00 UTC,2445091.333333,28.7317,-95.2428,0215,0.31,-8.99,9.0000,178.0000
1982-05-01 20:30:00 UTC,2445091.354167,28.7317,-95.2428,0215,0.56,-7.98,8.0000,176.0000
1982-05-01 21:00:00 UTC,2445091.375000,28.7317,-95.2428,0215,-0.94,-8.95,9.0000,186.0000
1982-05-01 21:30:00 UTC,2445091.395833,28.7317,-95.2428,0215,-2.63,-8.61,9.0000,197.0000
1982-05-01 22:00:00 UTC,2445091.416667,28.7317,-95.2428,0215,-2.74,-7.52,8.0000,200.0000
1982-05-01 22:30:00 UTC,2445091.437500,28.7317,-95.2428,0215,-2.05,-6.69,7.0000,197.0000
1982-05-01 23:00:00 UTC,2445091.458333,28.7317,-95.2428,0215,-1.14,-5.89,6.0000,191.0000
1982-05-01 23:30:00 UTC,2445091.479167,28.7317,-95.2428,0215,-0.73,-6.96,7.0000,186.0000
1982-05-02 00:00:00 UTC,2445091.500000,28.7317,-95.2428,0215,0.00,-8.00,8.0000,180.0000
1982-05-02 00:30:00 UTC,2445091.520833,28.7317,-95.2428,0215,0.63,-8.98,9.0000,176.0000
1982-05-02 01:00:00 UTC,2445091.541667,28.7317,-95.2428,0215,1.10,-8.93,9.0000,173.0000
1982-05-02 01:30:00 UTC,2445091.562500,28.7317,-95.2428,0215,1.56,-8.86,9.0000,170.0000
1982-05-02 02:00:00 UTC,2445091.583333,28.7317,-95.2428,0215,1.56,-8.86,9.0000,170.0000
1982-05-02 02:30:00 UTC,2445091.604167,28.7317,-95.2428,0215,0.78,-8.97,9.0000,175.0000
1982-05-02 03:00:00 UTC,2445091.625000,28.7317,-95.2428,0215,0.16,-9.00,9.0000,179.0000
1982-05-02 03:30:00 UTC,2445091.645833,28.7317,-95.2428,0215,-0.31,-8.99,9.0000,182.0000
1982-05-02 04:00:00 UTC,2445091.666667,28.7317,-95.2428,0215,-0.87,-9.96,10.0000,185.0000
1982-05-02 04:30:00 UTC,2445091.687500,28.7317,-95.2428,0215,-1.22,-9.93,10.0000,187.0000
1982-05-02 05:00:00 UTC,2445091.708333,28.7317,-95.2428,0215,-1.34,-10.92,11.0000,187.0000
1982-05-02 05:30:00 UTC,2445091.729167,28.7317,-95.2428,0215,-0.58,-10.98,11.0000,183.0000
1982-05-02 06:00:00 UTC,2445091.750000,28.7317,-95.2428,0215,-0.19,-11.00,11.0000,181.0000
1982-05-02 06:30:00 UTC,2445091.770833,28.7317,-95.2428,0215,-0.38,-10.99,11.0000,182.0000
1982-05-02 07:00:00 UTC,2445091.791667,28.7317,-95.2428,0215,-0.38,-10.99,11.0000,182.0000
1982-05-02 07:30:00 UTC,2445091.812500,28.7317,-95.2428,0215,-0.42,-11.99,12.0000,182.0000
1982-05-02 08:00:00 UTC,2445091.833333,28.7317,-95.2428,0215,-1.13,-12.95,13.0000,185.0000
1982-05-02 08:30:00 UTC,2445091.854167,28.7317,-95.2428,0215,-1.95,-13.86,14.0000,188.0000
1982-05-02 09:00:00 UTC,2445091.875000,28.7317,-95.2428,0215,-1.81,-12.87,13.0000,188.0000
1982-05-02 09:30:00 UTC,2445091.895833,28.7317,-95.2428,0215,-1.36,-12.93,13.0000,186.0000
1982-05-02 10:00:00 UTC,2445091.916667,28.7317,-95.2428,0215,-0.63,-11.98,12.0000,183.0000
1982-05-02 10:30:00 UTC,2445091.937500,28.7317,-95.2428,0215,0.19,-11.00,11.0000,179.0000
1982-05-02 11:00:00 UTC,2445091.958333,28.7317,-95.2428,0215,0.38,-10.99,11.0000,178.0000
1982-05-02 11:30:00 UTC,2445091.979167,28.7317,-95.2428,0215,0.38,-10.99,11.0000,178.0000
1982-05-02 12:00:00 UTC,2445092.000000,28.7317,-95.2428,0215,0.87,-9.96,10.0000,175.0000
1982-05-02 12:30:00 UTC,2445092.020833,28.7317,-95.2428,0215,1.39,-9.90,10.0000,172.0000
1982-05-02 13:00:00 UTC,2445092.041667,28.7317,-95.2428,0215,1.25,-8.91,9.0000,172.0000
1982-05-02 13:30:00 UTC,2445092.062500,28.7317,-95.2428,0215,1.41,-8.89,9.0000,171.0000
1982-05-02 14:00:00 UTC,2445092.083333,28.7317,-95.2428,0215,1.80,-7.79,8.0000,167.0000
1982-05-02 14:30:00 UTC,2445092.104167,28.7317,-95.2428,0215,2.07,-7.73,8.0000,165.0000
1982-05-02 15:00:00 UTC,2445092.125000,28.7317,-95.2428,0215,2.07,-7.73,8.0000,165.0000
1982-05-02 15:30:00 UTC,2445092.145833,28.7317,-95.2428,0215,1.94,-7.76,8.0000,166.0000
1982-05-02 16:00:00 UTC,2445092.166667,28.7317,-95.2428,0215,2.34,-7.65,8.0000,163.0000
1982-05-02 16:30:00 UTC,2445092.187500,28.7317,-95.2428,0215,2.78,-8.56,9.0000,162.0000
1982-05-02 17:00:00 UTC,2445092.208333,28.7317,-95.2428,0215,2.47,-7.61,8.0000,162.0000
1982-05-02 17:30:00 UTC,2445092.229167,28.7317,-95.2428,0215,2.21,-7.69,8.0000,164.0000
1982-05-02 18:00:00 UTC,2445092.250000,28.7317,-95.2428,0215,2.63,-8.61,9.0000,163.0000
1982-05-02 18:30:00 UTC,2445092.270833,28.7317,-95.2428,0215,2.76,-9.61,10.0000,164.0000
1982-05-02 19:00:00 UTC,2445092.291667,28.7317,-95.2428,0215,1.91,-9.82,10.0000,169.0000
1982-05-02 19:30:00 UTC,2445092.312500,28.7317,-95.2428,0215,1.34,-10.92,11.0000,173.0000
1982-05-02 20:00:00 UTC,2445092.333333,28.7317,-95.2428,0215,0.63,-11.98,12.0000,177.0000
1982-05-02 20:30:00 UTC,2445092.354167,28.7317,-95.2428,0215,-0.21,-12.00,12.0000,181.0000
1982-05-02 21:00:00 UTC,2445092.375000,28.7317,-95.2428,0215,-0.23,-13.00,13.0000,181.0000
1982-05-02 21:30:00 UTC,2445092.395833,28.7317,-95.2428,0215,0.00,-12.00,12.0000,180.0000
1982-05-02 22:00:00 UTC,2445092.416667,28.7317,-95.2428,0215,0.19,-11.00,11.0000,179.0000
1982-05-02 22:30:00 UTC,2445092.437500,28.7317,-95.2428,0215,0.52,-9.99,10.0000,177.0000
1982-05-02 23:00:00 UTC,2445092.458333,28.7317,-95.2428,0215,0.94,-8.95,9.0000,174.0000
1982-05-02 23:30:00 UTC,2445092.479167,28.7317,-95.2428,0215,1.25,-7.90,8.0000,171.0000
1982-05-03 00:00:00 UTC,2445092.500000,28.7317,-95.2428,0215,1.94,-7.76,8.0000,166.0000
1982-05-03 00:30:00 UTC,2445092.520833,28.7317,-95.2428,0215,1.53,-7.85,8.0000,169.0000
1982-05-03 01:00:00 UTC,2445092.541667,28.7317,-95.2428,0215,0.94,-8.95,9.0000,174.0000
1982-05-03 01:30:00 UTC,2445092.562500,28.7317,-95.2428,0215,0.97,-7.94,8.0000,173.0000
1982-05-03 02:00:00 UTC,2445092.583333,28.7317,-95.2428,0215,1.34,-6.87,7.0000,169.0000
1982-05-03 02:30:00 UTC,2445092.604167,28.7317,-95.2428,0215,1.45,-5.82,6.0000,166.0000
1982-05-03 03:00:00 UTC,2445092.625000,28.7317,-95.2428,0215,2.16,-6.66,7.0000,162.0000
1982-05-03 03:30:00 UTC,2445092.645833,28.7317,-95.2428,0215,2.51,-6.54,7.0000,159.0000
1982-05-03 04:00:00 UTC,2445092.666667,28.7317,-95.2428,0215,1.93,-6.73,7.0000,164.0000
1982-05-03 04:30:00 UTC,2445092.687500,28.7317,-95.2428,0215,1.34,-6.87,7.0000,169.0000
1982-05-03 05:00:00 UTC,2445092.708333,28.7317,-95.2428,0215,1.22,-6.89,7.0000,170.0000
1982-05-03 05:30:00 UTC,2445092.729167,28.7317,-95.2428,0215,1.10,-6.91,7.0000,171.0000
1982-05-03 06:00:00 UTC,2445092.750000,28.7317,-95.2428,0215,0.84,-7.96,8.0000,174.0000
1982-05-03 06:30:00 UTC,2445092.770833,28.7317,-95.2428,0215,0.28,-8.00,8.0000,178.0000
1982-05-03 07:00:00 UTC,2445092.791667,28.7317,-95.2428,0215,0.00,-7.00,7.0000,180.0000
1982-05-03 07:30:00 UTC,2445092.812500,28.7317,-95.2428,0215,0.37,-6.99,7.0000,177.0000
1982-05-03 08:00:00 UTC,2445092.833333,28.7317,-95.2428,0215,0.73,-5.96,6.0000,173.0000